Weather in Aptryakovo

Russia / Chelyabinsk Oblast     55°42′39″N   59°42′45″E
temp.,
°C
wind,
m/s
gust,
m/s
humid.,
%
clouds,
%
prec.,
mm/h
press.,
hPa
HPBL,
m
28 june, tue
tue2823:00+12wsw51293100 1.2 1005653
02:00+12w4999100 8.4 1004716
05:00+7nw4899100 8.5 1006485
08:00+5nw4797100 0.1 1008509
11:00+9nw474967 0.2 10081519
14:00+8nw6753100 0.0 10091577
17:00+6nw4883100 0.4 10101247
20:00+6nw598496 0.5 1010982
29 june, wed
wed2923:00+3wnw310928 0.5 1011361
02:00+2wnw4109957 0.0 1011501
05:00+2nw5990100 0.1 1011899
08:00+4wnw51188100 0.0 1011595
11:00+8nw51170100 0.0 10101325
14:00+13nw41052100 0.0 10081936
17:00+17nw684143 0.1 10072378
20:00+13wnw510667 0.1 1008737
30 june, thu
thu3023:00+9wnw311795 0.1 1009340
02:00+5wsw229753 0.0 100930
05:00+4wsw2495100 0.0 100899
08:00+10wnw366374 0.0 1007478
11:00+14nw3444100 0.0 10061754
14:00+15w224384 0.0 10061827
17:00+14nw215585 0.1 10061113
20:00+11n139123 1.1 100766
1 july, fri
fri123:00+7ene259499 1.1 1009145
02:00+6ne3896100 0.0 1010321
05:00+4nne239762 0.0 1011116
08:00+7n248893 0.0 1011402
11:00+8n3478100 0.1 1011669
14:00+8nnw1384100 0.1 1011278
17:00+12wsw2265100 0.1 1010569
20:00+11wsw368496 0.1 1010314
2 july, sat
sat223:00+7wsw119540 0.3 101015
02:00+8wsw1191100 0.0 101011
05:00+7w119393 0.0 101011
08:00+10wnw248294 0.0 1010211
11:00+10wsw139075 0.1 1010117
14:00+15nw356460 0.3 10081206
17:00+16nw366998 1.1 1008815
20:00+15wnw387320 0.1 1007367